NameSizeLast modified
Parent directory/⇩ 234 MB(.zip of contents)
01. Athmosfear SoundControl - Space problem.mp3⇩ 6 MB2017-03-29 07:27:28
02. DJ Diahree - Catafalk.mp3⇩ 7 MB2017-03-29 07:27:29
03. DJ Mucus - Frenchtone.mp3⇩ 6 MB2017-03-29 07:27:29
04. 666speedtone999 - Extracore Annihilation.mp3⇩ 4 MB2017-03-29 07:27:30
05. 666speedtone999 - Fractal Enzyme.mp3⇩ 4 MB2017-03-29 07:27:30
06. Ctrl 3 (07) - Trepanation.mp3⇩ 5 MB2017-03-29 07:27:31
07. Soulfucker - Beats of evil 1.mp3⇩ 6 MB2017-03-29 07:27:31
08. Egnal Ramd - Jonesy.mp3⇩ 8 MB2017-03-29 07:27:32
09. 666speedtone999 - Rape of an electronic genre that you define hard.mp3⇩ 5 MB2017-03-29 07:27:33
10. Tim Shopp - SCREAMMMMM.mp3⇩ 8 MB2017-03-29 07:27:33
11. Soulfucker - Beats of evil 2.mp3⇩ 6 MB2017-03-29 07:27:34
12. Implant - Battlecruiser.mp3⇩ 7 MB2017-03-29 07:27:34
13. DJ SPEAKTERROR - Decapitation.mp3⇩ 10 MB2017-03-29 07:27:35
14. 666speedtone999 - TortureTone.mp3⇩ 4 MB2017-03-29 07:27:36
15. M.A.X. 329 - Demonic Fury.mp3⇩ 9 MB2017-03-29 07:27:36
16. Azis - The World Says Kurrrrrrrrrrrrrrwa.mp3⇩ 12 MB2017-03-29 07:27:38
17. The Mother Fucker - Fucking Brain Destrukktion (Gutted 7!cHO Rm-X).mp3⇩ 6 MB2017-03-29 07:27:38
18. Ctrl 3 (07) - 1Kick 1Synth.mp3⇩ 6 MB2017-03-29 07:27:39
19. The Disintergrator 329 - Internal Error Pills and Pressure.mp3⇩ 5 MB2017-03-29 07:27:39
20. Dj Antitiesto - Wanked On The Moon (KGIOM Extrem Fast Splitter n Extratone RMX).mp3⇩ 9 MB2017-03-29 07:27:40
21. Coakira - Dislike.mp3⇩ 6 MB2017-03-29 07:27:41
22. Taylor Hackett & Noise Spammer - Malacoda.mp3⇩ 7 MB2017-03-29 07:27:41
23. Hozier - Take Me To Church (Extratone Mixxed by KGIOM).mp3⇩ 9 MB2017-03-29 07:27:42
24. The Disintergrator 329 - Beyond the Growls of Evil.mp3⇩ 6 MB2017-03-29 07:27:43
25. 666speedtone999 - Wast BPM.mp3⇩ 6 MB2017-03-29 07:27:43
26. Noize Overdose vs Virtual Extratone Machine - Noise Valley.mp3⇩ 2 MB2017-03-29 07:27:43
27. SPaCeyALieN - ExtraTone In Yah Face.mp3⇩ 6 MB2017-03-29 07:27:44
28. The Mother Fucker - Extrashish.mp3⇩ 6 MB2017-03-29 07:27:44
29. Ralph Brown - Just once.mp3⇩ 8 MB2017-03-29 07:27:45
30. Implant - La gran prostituta de Babilonia está aquí con siete cabezas! aquí entre nosotros!.mp3⇩ 8 MB2017-03-29 07:27:46
31. NeedrazyX - 10-22-20-13-18-12-20.mp3⇩ 8 MB2017-03-29 07:27:47
32. Cuntcutter - Fuck Off.mp3⇩ 3 MB2017-03-29 07:27:47
33. Twi - A story of a sugar powder fairy coffied brain T-10000.mp3⇩ 24 MB2017-03-29 07:27:49
ER001.txt⇩ 2 KB2017-03-29 07:27:49
Extratone Sampler Vol.3 (Back).jpg⇩ 257 KB2017-03-29 07:27:49
Extratone Sampler Vol.3 (Front).jpg⇩ 134 KB2017-03-29 07:27:49